BONDI22 YWLM-YWLM

Flight info

Callsign BONDI22
Flight time 0h 8m
Altitude 39000
Route IFFEY
Aircraft C17/H-SDE1E2FGHIJ5RTUWXY/LB1D1

Departure

Time 2026-04-26 11:29
Airport Newcastle Airport (YWLM)

Arrival

Time 2026-04-26 11:38
Airport Newcastle Airport (YWLM)
Time Latitude Longitude Altitude Speed Heading
2026-04-26 11:26 -32.52412 152.33259 15018 ft 396 kts 294°
2026-04-26 11:26 -32.51306 152.30266 15008 ft 396 kts 294°
2026-04-26 11:26 -32.50202 152.27280 15024 ft 396 kts 294°
2026-04-26 11:27 -32.49096 152.24284 15026 ft 397 kts 294°
2026-04-26 11:27 -32.48993 152.24004 15026 ft 397 kts 294°
2026-04-26 11:27 -32.47948 152.21167 15007 ft 396 kts 294°
2026-04-26 11:28 -32.46863 152.18222 15015 ft 395 kts 294°
2026-04-26 11:28 -32.45764 152.15237 14957 ft 397 kts 294°
2026-04-26 11:28 -32.44666 152.12247 14798 ft 394 kts 294°
2026-04-26 11:28 -32.43607 152.09263 14320 ft 392 kts 288°
2026-04-26 11:29 -32.43297 152.06109 13564 ft 386 kts 263°
2026-04-26 11:29 -32.44095 152.03125 12612 ft 379 kts 238°
2026-04-26 11:29 -32.45832 152.00849 11667 ft 371 kts 213°
2026-04-26 11:29 -32.48141 151.99588 10765 ft 364 kts 197°
2026-04-26 11:30 -32.50545 151.98707 9917 ft 360 kts 194°
2026-04-26 11:30 -32.52139 151.98176 9322 ft 357 kts 193°
2026-04-26 11:30 -32.55325 151.97187 8203 ft 351 kts 192°
2026-04-26 11:30 -32.57146 151.96648 7917 ft 351 kts 192°
2026-04-26 11:31 -32.59522 151.95958 8171 ft 352 kts 192°
2026-04-26 11:31 -32.61905 151.95267 8614 ft 353 kts 192°
2026-04-26 11:31 -32.64346 151.94931 8710 ft 357 kts 175°
2026-04-26 11:31 -32.66718 151.95672 8747 ft 351 kts 156°
2026-04-26 11:32 -32.68951 151.96808 8372 ft 348 kts 154°
2026-04-26 11:32 -32.71136 151.98017 7682 ft 345 kts 153°
2026-04-26 11:32 -32.73292 151.99259 6869 ft 350 kts 153°
2026-04-26 11:32 -32.75472 152.00541 6528 ft 345 kts 152°
2026-04-26 11:33 -32.77591 152.01794 5932 ft 337 kts 152°
2026-04-26 11:33 -32.79647 152.03013 5155 ft 332 kts 152°
2026-04-26 11:33 -32.81701 152.04232 4348 ft 328 kts 152°
2026-04-26 11:33 -32.83759 152.05443 3674 ft 334 kts 152°
2026-04-26 11:34 -32.85823 152.06648 3365 ft 326 kts 152°
2026-04-26 11:34 -32.87864 152.07780 3216 ft 324 kts 159°
2026-04-26 11:34 -32.90058 152.07965 3150 ft 317 kts 190°
2026-04-26 11:34 -32.92015 152.06804 3135 ft 320 kts 221°
2026-04-26 11:35 -32.93200 152.04707 3134 ft 298 kts 253°
2026-04-26 11:35 -32.93335 152.02291 3137 ft 301 kts 277°
2026-04-26 11:35 -32.92860 151.99918 3128 ft 297 kts 299°
2026-04-26 11:35 -32.92023 151.98618 3124 ft 292 kts 321°
2026-04-26 11:36 -32.89672 151.97120 3215 ft 289 kts 338°
2026-04-26 11:36 -32.88052 151.95742 3640 ft 294 kts 315°
2026-04-26 11:36 -32.86778 151.93707 2865 ft 310 kts 308°
2026-04-26 11:36 -32.85513 151.91686 2380 ft 302 kts 310°
2026-04-26 11:37 -32.84249 151.89804 1771 ft 272 kts 311°
2026-04-26 11:37 -32.83024 151.88104 1351 ft 259 kts 314°
2026-04-26 11:37 -32.82075 151.86840 950 ft 165 kts 314°
2026-04-26 11:37 -32.81413 151.85934 529 ft 130 kts 313°
2026-04-26 11:38 -32.80832 151.85175 209 ft 122 kts 313°
2026-04-26 11:38 -32.80301 151.84474 31 ft 98 kts 311°
2026-04-26 11:38 -32.80060 151.84139 30 ft 38 kts 310°
2026-04-26 11:38 -32.79895 151.83912 30 ft 23 kts 313°
2026-04-26 11:39 -32.79838 151.83898 30 ft 6 kts 30°
2026-04-26 11:39 -32.79818 151.83926 30 ft 9 kts 54°
2026-04-26 11:39 -32.79810 151.83940 29 ft 4 kts 54°